Wind_Speed
6 3 3 5 5 8 11 10 11 10 12 13 7 14 16 19 11 9 25 20 22 19 19 18 16 16 15 14 14 13 13 12 11 10 10 8 9 9 8 6 6 7 6 5 5 6 8 8 8
2 4 6 8 3 11 11 14 15 13 12 12 10 3 12 16 13 26 23 22 20 18 17 15 16 15 15 14 15 13 12 11 10 9 9 8 8 8 8 7 7 7 7 7 7 7 8 8 9
1 7 10 5 9 12 11 13 12 10 8 5 7 13 9 11 23 19 24 23 20 19 16 14 16 15 16 13 13 13 12 11 9 8 8 8 8 8 7 7 7 7 6 6 7 6 6 7 8
7 8 11 9 15 12 13 9 6 10 9 7 8 13 11 15 17 20 24 22 20 19 15 17 17 15 14 15 13 12 11 9 8 8 7 7 6 7 6 5 5 6 5 6 5 6 7 6 6
8 10 4 15 14 10 10 9 5 12 7 10 1 16 19 13 15 24 23 21 20 19 16 17 16 15 13 12 12 10 9 8 8 8 10 8 7 5 5 3 2 4 3 3 3 3 4 5 6
14 6 8 14 13 8 9 9 2 12 11 12 19 18 13 15 22 22 20 19 18 17 16 16 15 13 12 11 10 9 8 9 8 7 7 7 5 4 3 3 2 2 2 1 1 1 2 3 3
11 6 11 13 17 11 10 3 12 9 10 13 11 14 16 20 21 20 19 18 17 16 17 16 13 13 11 12 11 9 8 7 6 6 5 5 5 3 2 2 1 1 2 2 2 1 1 3 4
10 9 16 9 15 11 7 8 3 12 11 9 4 8 20 23 22 20 18 18 17 16 14 16 14 12 11 12 10 9 8 7 6 6 4 3 4 4 2 1 1 1 2 4 5 5 5 4 6
9 6 11 12 13 12 5 6 7 5 10 6 4 8 23 25 23 20 19 18 17 15 15 14 14 11 12 8 8 8 8 6 5 4 4 3 3 1 3 6 3 3 3 2 5 7 7 6 7
10 10 10 9 9 10 8 6 8 6 6 6 7 17 23 24 23 21 19 19 18 16 15 14 13 11 11 13 8 6 4 3 3 2 6 2 3 3 5 5 3 3 3 3 3 4 5 9 7
8 9 9 9 7 7 8 8 4 6 7 9 13 19 23 24 22 20 18 18 17 16 15 14 13 13 10 9 5 7 6 6 5 7 5 5 2 1 2 3 5 7 6 6 7 7 5 10 14
6 8 7 4 3 4 4 5 6 9 6 8 14 18 21 23 21 20 18 17 17 16 15 14 14 13 12 10 8 6 7 5 5 4 5 7 5 5 4 5 4 9 7 12 11 11 11 10 11
2 6 6 5 4 5 5 4 8 7 9 11 16 19 20 20 20 18 17 16 16 16 15 15 14 13 13 12 8 7 6 4 6 5 4 5 5 7 9 5 8 10 12 12 14 14 12 12 12
7 7 3 3 7 6 5 8 8 9 11 14 18 18 19 19 20 18 17 16 16 15 15 14 14 14 12 12 11 8 8 6 4 4 6 4 5 8 8 10 12 9 10 11 14 15 14 13 12
7 12 9 8 5 5 9 3 8 14 13 15 17 17 17 18 19 18 17 16 16 15 15 15 15 14 14 12 11 9 8 6 6 6 9 6 7 8 10 8 9 11 12 19 18 19 18 17 13
10 11 11 2 5 5 11 17 14 16 16 17 17 17 17 19 19 18 17 17 15 14 15 16 14 14 14 12 11 8 7 8 8 8 8 6 9 9 9 9 10 10 13 12 19 16 15 13 14
12 8 9 8 3 3 8 4 14 15 16 16 18 19 19 20 21 20 19 17 15 15 16 15 14 14 13 13 11 9 8 8 7 8 10 11 7 10 8 9 8 14 10 14 9 10 9 9 8
1 11 10 3 6 6 11 9 13 18 16 18 18 20 21 22 23 22 21 19 17 17 14 17 14 14 14 12 12 10 9 8 8 9 8 8 7 10 6 7 7 11 8 9 10 11 11 12 9
10 11 9 7 2 8 12 8 14 19 17 18 20 21 22 22 22 23 23 21 20 18 16 16 16 16 16 15 12 10 9 9 7 7 5 7 4 4 5 6 9 8 11 13 13 14 14 11 10
18 13 15 10 8 8 12 10 13 18 15 16 19 23 23 22 23 23 24 24 22 21 19 19 16 17 16 14 14 12 9 7 9 7 8 6 8 8 5 4 7 7 10 11 9 11 10 10 7
12 17 16 10 3 9 17 17 17 11 16 17 18 21 24 24 24 25 25 25 23 22 22 22 23 20 18 13 14 13 11 12 12 8 7 6 5 4 5 4 5 7 8 8 8 10 10 9 9
18 17 16 15 7 11 3 12 16 16 13 16 19 20 24 25 25 24 25 24 24 23 21 22 23 25 21 19 13 15 13 10 7 4 5 4 3 3 2 3 4 5 5 7 6 8 7 9 11
20 15 17 7 15 15 18 10 13 16 12 18 15 18 21 28 27 25 23 22 22 22 22 21 22 23 22 20 18 14 14 10 7 5 4 3 5 3 1 1 3 4 4 5 7 8 10 9 8
17 15 12 13 14 14 18 13 13 3 22 7 12 10 17 24 27 26 23 23 21 21 21 21 22 23 21 19 18 16 14 12 8 6 5 3 4 1 2 1 4 6 5 4 5 8 10 11 9
13 14 12 13 14 13 19 16 11 11 5 12 7 5 8 22 26 26 25 23 22 22 22 21 22 22 20 18 16 14 13 12 9 7 6 5 5 3 2 3 3 4 5 6 7 9 9 11 10
17 18 13 15 13 16 21 12 7 11 5 2 3 7 4 18 25 25 27 25 22 24 24 22 23 22 20 17 14 13 14 10 8 9 7 5 5 6 3 3 3 5 4 5 9 4 10 10 12
17 15 20 22 20 16 4 12 19 4 6 4 8 2 11 15 22 24 26 25 23 23 25 24 23 22 22 18 16 14 14 12 9 11 10 8 9 5 5 4 3 5 5 6 8 7 6 10 9
18 9 12 12 15 17 16 13 9 6 5 5 4 2 9 14 19 23 25 24 23 23 23 24 24 25 24 21 17 14 15 15 13 11 11 11 10 8 4 4 2 2 7 7 6 6 12 11 9
12 15 11 19 13 13 13 8 20 8 4 4 5 3 6 5 16 21 23 23 21 22 25 26 25 25 24 21 18 17 16 15 15 12 12 11 9 6 4 1 1 3 4 6 6 6 10 8 7
16 15 18 9 14 13 9 5 24 9 3 6 4 2 6 4 15 17 20 23 22 24 27 27 25 24 22 23 21 18 17 17 16 14 14 13 9 5 3 1 2 2 4 8 7 5 5 5 5
Wind_Direction
38 33 273 269 259 79 63 44 81 81 77 77 74 43 70 38 49 85 135 137 138 137 137 131 132 132 128 128 128 128 124 120 118 122 120 116 114 114 106 104 102 97 96 93 103 90 83 84 93
299 269 266 271 283 66 65 57 48 44 72 92 88 140 88 60 93 124 128 138 136 137 131 131 132 138 136 140 137 136 130 130 132 118 121 114 107 107 111 113 108 108 105 90 89 100 106 95 99
74 282 280 340 32 59 64 72 69 72 72 66 100 40 29 97 119 124 137 137 138 131 139 142 129 129 130 131 131 131 134 124 115 119 111 103 99 110 112 110 106 102 102 100 90 94 108 107 104
313 257 261 43 73 43 75 80 116 124 97 61 98 91 85 126 124 138 140 139 139 136 149 144 136 133 132 138 136 128 123 117 119 113 103 108 104 102 109 103 109 100 100 101 86 94 104 101 118
289 251 257 77 58 59 78 58 24 83 57 62 74 92 110 121 131 140 142 143 141 143 149 147 143 140 136 140 140 131 128 133 134 129 126 115 120 119 109 103 106 107 83 83 87 91 123 111 116
276 260 55 71 69 82 73 85 330 88 85 91 104 108 110 134 139 144 145 146 146 147 145 152 144 146 147 146 141 138 142 137 126 121 122 124 130 127 100 100 139 109 60 59 58 93 125 159 147
293 329 67 63 79 64 56 57 24 88 103 102 125 106 131 142 146 147 148 148 151 147 153 151 148 149 147 151 143 142 148 140 143 140 136 135 123 118 110 129 92 84 178 232 249 240 244 215 201
286 274 76 62 70 57 84 60 87 42 74 109 117 125 153 152 151 151 151 152 152 153 156 158 155 158 147 151 152 149 150 146 146 142 133 120 103 54 76 16 336 265 269 251 241 248 255 252 248
273 279 54 28 42 93 110 81 58 68 121 62 75 137 150 155 155 155 157 156 158 161 159 162 156 165 154 163 169 159 156 145 144 137 124 117 170 316 298 255 277 291 284 288 257 258 254 253 250
305 44 23 28 35 81 96 69 92 120 103 122 107 118 146 156 161 162 165 163 167 167 167 167 163 170 163 171 197 157 196 164 158 188 244 198 175 196 188 242 273 280 293 287 277 279 295 273 251
8 28 13 61 37 57 92 110 109 171 157 131 137 145 155 161 166 168 169 171 172 172 170 171 168 170 171 161 154 160 183 186 210 199 199 287 254 94 200 240 300 299 287 284 276 265 236 226 254
293 41 16 57 115 102 93 105 110 47 47 109 144 157 161 166 171 173 172 172 175 178 177 177 176 178 177 182 174 192 178 194 213 196 200 234 272 308 311 250 254 267 254 265 267 290 270 251 255
316 355 62 105 149 130 136 119 98 93 105 120 142 157 166 174 174 175 175 173 178 181 183 184 186 188 186 184 190 190 195 202 203 217 213 253 274 289 296 307 272 270 284 279 278 283 280 267 263
356 300 72 193 134 156 179 150 185 129 130 135 150 163 171 177 179 175 177 176 181 184 188 189 190 195 190 193 189 195 200 212 232 238 273 266 269 285 285 297 295 298 271 290 273 275 273 281 279
276 261 173 171 177 167 216 172 170 147 151 152 162 170 174 178 179 180 180 178 181 186 189 189 190 199 192 195 208 198 207 208 231 253 258 255 266 285 274 282 319 314 333 314 299 289 278 268 273
258 251 238 68 186 173 255 211 115 158 168 166 170 176 177 179 180 180 178 176 175 181 187 185 190 197 201 201 207 205 216 218 234 244 257 260 264 280 295 311 311 293 311 303 304 303 286 263 261
204 222 279 144 154 318 244 141 130 172 180 179 180 183 183 184 185 184 183 180 183 180 185 187 190 192 202 202 202 207 220 229 237 253 256 263 286 286 298 302 314 306 331 311 329 343 321 292 295
16 263 163 261 98 228 272 284 147 176 195 188 192 188 190 191 191 188 188 187 185 185 177 189 192 189 198 206 205 213 223 235 248 265 281 290 281 296 286 298 286 328 322 319 317 329 320 324 309
304 290 312 130 103 284 274 316 174 171 195 198 196 192 196 198 194 194 196 197 196 196 192 191 190 198 195 201 209 215 224 232 253 260 272 289 275 272 296 305 315 342 323 323 345 326 324 317 311
251 258 252 226 159 264 285 292 293 159 188 209 205 193 202 199 198 198 199 199 201 203 204 200 193 193 196 207 210 218 228 231 239 238 257 264 244 251 286 296 330 315 321 324 310 326 328 323 339
257 241 257 337 330 285 262 259 250 175 178 199 209 210 196 202 202 197 199 204 205 206 206 208 204 203 198 190 206 212 214 229 241 268 271 270 263 257 265 315 342 328 355 330 355 339 323 330 331
241 239 259 276 265 272 223 292 197 166 181 186 196 207 204 197 201 204 201 203 205 206 207 206 208 202 206 200 204 206 217 225 238 266 276 230 199 163 296 5 330 356 40 349 359 341 357 343 341
256 258 264 268 252 261 255 252 278 183 212 185 188 191 210 193 202 204 202 196 203 202 203 202 203 208 201 209 198 218 204 216 224 221 216 197 165 156 176 337 13 9 38 10 16 17 9 7 358
252 249 257 265 257 256 263 257 268 199 1 119 152 148 192 203 198 199 203 196 196 196 196 193 195 202 198 207 207 203 208 197 203 203 203 175 88 152 148 92 24 38 54 15 9 30 357 10 8
239 239 241 232 232 245 250 242 253 310 191 33 60 63 191 195 196 197 197 197 190 191 189 187 186 188 192 196 202 199 194 197 193 195 179 186 166 182 200 55 84 35 25 18 27 2 12 351 2
210 237 236 238 251 252 231 230 214 264 37 306 213 188 164 190 195 198 197 201 191 190 185 183 187 189 187 190 189 191 189 191 193 183 178 181 168 173 215 100 69 44 11 5 2 4 349 348 348
233 220 255 264 267 272 291 9 267 224 250 290 233 158 161 189 194 197 198 199 193 191 187 183 183 188 190 187 185 188 185 186 201 185 178 178 162 172 143 107 68 28 357 351 352 332 339 344 346
255 262 229 243 267 273 282 182 239 166 195 320 336 7 152 176 195 193 199 197 191 193 191 186 187 193 190 185 184 186 186 187 192 190 165 165 162 166 139 124 105 327 337 337 344 339 316 337 342
205 243 249 267 225 253 266 264 3 113 106 285 354 313 55 193 183 199 192 188 185 189 190 189 188 185 181 181 183 187 184 187 175 178 171 165 157 158 165 188 177 6 342 321 347 344 315 342 354
232 217 241 235 242 276 304 272 175 266 191 211 299 22 54 278 174 195 184 174 180 184 185 187 186 182 181 188 180 186 183 184 175 180 169 164 173 185 163 228 50 54 327 329 330 342 333 349 343
Height
1483 1482 1487 1486 1487 1465 1479 1478 1467 1472 1478 1481 1487 1482 1488 1494 1497 1509 1516 1520 1525 1527 1527 1529 1531 1533 1535 1536 1538 1540 1541 1542 1543 1545 1546 1547 1547 1548 1548 1549 1550 1551 1551 1551 1551 1551 1552 1553 1553
1490 1487 1486 1480 1478 1482 1485 1475 1481 1482 1484 1487 1490 1488 1489 1500 1504 1509 1517 1523 1526 1529 1532 1532 1533 1535 1537 1539 1540 1542 1543 1544 1545 1546 1548 1548 1549 1550 1550 1551 1552 1552 1553 1553 1553 1553 1553 1553 1554
1488 1489 1482 1468 1472 1485 1490 1479 1483 1487 1487 1487 1491 1492 1495 1509 1511 1514 1520 1524 1528 1531 1534 1533 1535 1537 1539 1541 1542 1543 1545 1545 1547 1548 1549 1550 1551 1552 1552 1553 1553 1554 1554 1555 1554 1554 1554 1555 1556
1492 1489 1482 1472 1484 1479 1478 1481 1483 1483 1489 1491 1491 1500 1509 1510 1514 1517 1522 1526 1530 1533 1535 1534 1537 1539 1541 1542 1544 1545 1546 1547 1549 1549 1550 1551 1553 1554 1554 1554 1555 1555 1555 1555 1556 1555 1556 1556 1557
1492 1484 1476 1476 1483 1480 1480 1483 1482 1481 1489 1491 1491 1501 1511 1515 1517 1521 1524 1528 1531 1534 1535 1536 1539 1541 1543 1545 1546 1547 1548 1549 1550 1551 1552 1552 1553 1554 1555 1555 1556 1556 1556 1556 1557 1557 1557 1558 1558
1485 1473 1472 1484 1484 1480 1482 1486 1482 1486 1492 1496 1500 1505 1513 1517 1520 1523 1527 1529 1533 1535 1538 1537 1540 1542 1544 1546 1548 1549 1550 1551 1552 1552 1553 1554 1555 1555 1556 1556 1556 1557 1557 1557 1558 1558 1558 1559 1559
1478 1466 1474 1478 1481 1485 1485 1487 1484 1488 1490 1496 1500 1505 1515 1519 1522 1525 1528 1531 1534 1537 1539 1540 1542 1543 1545 1547 1549 1550 1551 1552 1553 1554 1554 1555 1556 1556 1557 1557 1557 1556 1557 1557 1558 1558 1559 1559 1559
1483 1471 1472 1475 1484 1494 1489 1489 1491 1489 1496 1499 1500 1503 1513 1518 1523 1526 1529 1532 1536 1538 1540 1542 1544 1545 1546 1548 1549 1551 1552 1553 1554 1555 1555 1556 1556 1557 1556 1557 1557 1557 1557 1557 1557 1558 1558 1559 1559
1482 1479 1481 1482 1483 1489 1490 1489 1493 1496 1498 1499 1501 1500 1510 1518 1522 1526 1529 1532 1537 1539 1541 1543 1546 1547 1549 1551 1550 1551 1552 1554 1554 1555 1556 1556 1557 1556 1558 1557 1557 1557 1557 1556 1556 1557 1557 1557 1558
1474 1476 1484 1481 1478 1483 1488 1489 1494 1495 1500 1502 1503 1506 1512 1519 1523 1525 1528 1532 1536 1539 1542 1543 1546 1548 1550 1551 1551 1555 1556 1557 1557 1558 1557 1556 1557 1558 1558 1558 1557 1557 1557 1556 1556 1555 1555 1556 1558
1480 1482 1480 1484 1486 1483 1488 1489 1492 1493 1491 1496 1503 1509 1514 1518 1522 1525 1528 1531 1535 1539 1541 1543 1546 1548 1551 1551 1553 1555 1556 1558 1558 1558 1558 1557 1557 1557 1557 1558 1557 1557 1557 1556 1555 1554 1553 1553 1555
1480 1480 1483 1486 1489 1487 1486 1490 1490 1493 1496 1496 1503 1510 1515 1518 1521 1524 1527 1531 1535 1539 1541 1543 1546 1548 1550 1552 1554 1555 1556 1558 1558 1558 1557 1557 1558 1557 1557 1558 1557 1556 1556 1555 1553 1551 1551 1552 1553
1479 1480 1483 1487 1489 1487 1489 1489 1490 1495 1497 1500 1505 1510 1514 1517 1520 1523 1526 1530 1534 1538 1541 1544 1546 1548 1549 1551 1553 1555 1556 1557 1557 1558 1557 1558 1559 1557 1557 1556 1556 1555 1553 1552 1551 1550 1549 1548 1548
1482 1481 1483 1484 1486 1487 1484 1486 1488 1495 1498 1502 1506 1510 1513 1515 1518 1522 1525 1529 1533 1537 1540 1543 1545 1547 1549 1550 1552 1554 1555 1556 1557 1557 1557 1558 1559 1558 1558 1557 1554 1553 1553 1551 1549 1547 1545 1544 1545
1481 1478 1477 1479 1480 1479 1483 1489 1481 1491 1498 1502 1505 1508 1511 1514 1518 1521 1524 1528 1532 1535 1538 1541 1544 1546 1547 1549 1550 1552 1554 1556 1557 1558 1557 1557 1557 1557 1557 1555 1553 1552 1549 1548 1546 1544 1543 1543 1544
1479 1475 1479 1479 1476 1477 1481 1493 1479 1489 1495 1499 1503 1507 1510 1513 1517 1521 1525 1528 1531 1534 1537 1540 1543 1545 1546 1549 1550 1552 1553 1555 1556 1556 1557 1554 1555 1554 1554 1553 1551 1551 1551 1550 1545 1542 1541 1540 1541
1471 1486 1477 1476 1474 1473 1473 1476 1478 1488 1492 1496 1500 1504 1508 1511 1515 1520 1524 1527 1530 1533 1536 1538 1541 1544 1546 1548 1549 1551 1553 1553 1554 1555 1554 1553 1551 1553 1553 1553 1552 1550 1550 1546 1544 1542 1541 1540 1539
1484 1473 1472 1478 1473 1474 1472 1468 1473 1483 1487 1491 1496 1501 1505 1509 1512 1517 1521 1525 1529 1530 1533 1536 1540 1543 1545 1547 1547 1550 1552 1553 1553 1553 1553 1554 1553 1552 1552 1553 1550 1550 1549 1547 1545 1543 1541 1540 1539
1466 1470 1472 1470 1475 1478 1471 1469 1466 1475 1482 1484 1490 1496 1501 1505 1509 1513 1519 1522 1526 1529 1531 1533 1537 1540 1542 1545 1546 1549 1550 1551 1551 1552 1551 1552 1552 1552 1551 1552 1549 1549 1549 1547 1545 1543 1542 1541 1538
1468 1479 1474 1465 1469 1477 1472 1469 1462 1466 1474 1479 1482 1488 1496 1501 1504 1509 1514 1518 1522 1526 1529 1531 1534 1537 1539 1542 1544 1547 1548 1549 1549 1549 1548 1550 1549 1549 1549 1550 1550 1548 1548 1547 1545 1545 1543 1540 1538
1473 1478 1471 1477 1466 1470 1469 1467 1459 1456 1463 1471 1476 1480 1487 1494 1499 1503 1508 1513 1518 1522 1525 1528 1530 1533 1534 1538 1541 1543 1545 1545 1546 1547 1547 1546 1546 1547 1548 1548 1548 1547 1547 1546 1544 1544 1543 1540 1539
1480 1466 1468 1469 1481 1488 1460 1483 1474 1448 1457 1460 1467 1473 1478 1487 1493 1497 1501 1507 1512 1517 1521 1524 1526 1528 1530 1534 1538 1539 1542 1543 1544 1545 1544 1544 1545 1547 1548 1548 1547 1546 1546 1545 1545 1543 1541 1540 1539
1474 1463 1463 1467 1476 1475 1469 1473 1450 1450 1449 1448 1457 1463 1471 1477 1486 1491 1496 1501 1506 1511 1515 1520 1524 1526 1529 1531 1535 1537 1540 1542 1543 1544 1543 1544 1545 1547 1549 1547 1546 1545 1546 1544 1543 1542 1540 1541 1539
1466 1468 1467 1471 1474 1489 1465 1464 1457 1447 1489 1440 1446 1453 1463 1471 1479 1486 1491 1495 1501 1507 1512 1517 1520 1523 1527 1530 1532 1535 1538 1541 1542 1544 1545 1545 1545 1547 1547 1547 1546 1545 1546 1544 1543 1541 1539 1538 1538
1468 1474 1490 1496 1490 1487 1448 1457 1448 1434 1438 1440 1446 1450 1459 1467 1473 1480 1486 1490 1496 1503 1510 1515 1517 1520 1524 1528 1530 1534 1538 1539 1540 1542 1544 1545 1547 1548 1546 1546 1547 1547 1544 1544 1542 1541 1541 1539 1538
1467 1467 1480 1504 1488 1467 1436 1454 1447 1433 1436 1441 1446 1449 1456 1462 1469 1475 1481 1487 1494 1501 1506 1511 1514 1518 1522 1526 1529 1533 1534 1539 1541 1539 1540 1544 1545 1547 1546 1547 1547 1546 1546 1546 1544 1544 1542 1540 1538
1459 1472 1455 1463 1451 1459 1451 1496 1442 1435 1438 1438 1440 1446 1451 1458 1464 1471 1477 1483 1491 1498 1503 1507 1510 1514 1519 1524 1527 1529 1532 1536 1538 1540 1541 1542 1544 1543 1543 1545 1546 1547 1546 1545 1544 1544 1541 1538 1537
1458 1447 1469 1462 1488 1487 1453 1455 1446 1441 1439 1439 1438 1446 1444 1455 1461 1466 1472 1480 1488 1495 1501 1504 1506 1509 1513 1519 1523 1526 1529 1532 1534 1537 1541 1542 1544 1543 1544 1544 1546 1546 1545 1544 1543 1544 1540 1538 1537
1462 1463 1460 1450 1454 1475 1472 1454 1440 1430 1434 1438 1440 1443 1446 1449 1458 1462 1469 1477 1485 1492 1496 1500 1502 1505 1510 1515 1520 1524 1527 1528 1531 1535 1538 1541 1543 1543 1543 1543 1544 1545 1545 1543 1542 1541 1538 1537 1535
1445 1451 1454 1465 1471 1448 1450 1456 1445 1429 1432 1435 1438 1443 1449 1453 1454 1461 1467 1476 1482 1487 1491 1495 1499 1504 1509 1512 1515 1520 1524 1526 1530 1533 1534 1538 1541 1542 1542 1543 1543 1543 1542 1541 1540 1539 1537 1535 1533